Location: Alma
(38.7220°N, 88.9090°W)
Time: 19:13:21
(UTC-06:00)

Vanguard 2 - Pass Details

Date: 20 November 2019
Orbit: 553 x 2938 km, 32.9° (Epoch: 07 December)

Event Time Altitude Azimuth Distance (km) Brightness Sun altitude
Rises 04:22:55 0° 196° (SSW) 6,608 12.2 -27.2°
Reaches altitude 10° 04:30:17 10° 178° (S) 5,261 11.8 -25.7°
Maximum altitude 04:37:38 16° 148° (SSE) 4,315 11.7 -24.3°
Drops below altitude 10° 04:43:45 10° 117° (ESE) 4,249 12.3 -23.1°
Sets 04:48:30 0° 97° (E) 4,775 13.1 -22.2°
